Погода в Бехтееве

Россия / Смоленская область     55°46′45″N   33°58′26″E
темп.,
°C
ветер,
м/с
пор.,
м/с
влажн.,
%
обл.,
%
осадки,
мм/ч
давл.,
гПа
погр.,
м
6 мая, чт
чт600:00+8ююв3893100 0.0 1005192
03:00+8ю4139083 0.0 1003322
06:00+8ю51493100 0.0 1001369
09:00+11ю81486100 0.1 999812
12:00+12ю81782100 0.3 9971537
15:00+6юз71191100 3.6 1001952
18:00+8зюз6118622 0.2 10031071
21:00+6юз5128676 0.4 1005681
7 мая, пт
пт700:00+4юз513930 0.0 1007510
03:00+3юз512930 0.0 1008390
06:00+2юз411930 0.0 1009330
09:00+7ююз61270100 0.0 1010729
12:00+9ююз71173100 0.4 10101504
15:00+9юз5107987 1.4 1009989
18:00+10ююз5977100 1.0 1009812
21:00+8ююв41289100 1.3 1008412
8 мая, сб
сб800:00+8ююв71690100 0.9 10061321
03:00+8ю71491100 1.3 1004992
06:00+8ю41196100 0.6 1003729
09:00+8ююв3797100 1.4 1001429
12:00+8юз2494100 4.4 1001235
15:00+8з2585100 8.3 1001328
18:00+8з4885100 1.3 1001916
21:00+4з61097100 2.8 10041037
9 мая, вс
вс900:00+3з71497100 1.1 1007857
03:00+4зсз6118482 1.1 1010948
06:00+2зсз5108795 0.1 1014947
09:00+4зсз5107863 0.1 1017977
12:00+10сз6849100 0.1 10192215
15:00+11сз684194 0.1 10202452
18:00+11зсз46505 0.0 10221448
21:00+6з34715 0.0 102557
10 мая, пн
пн1000:00+4зюз34745 0.0 102747
03:00+3юз347523 0.0 102851
06:00+4юз36775 0.0 1030132
09:00+10ююз46595 0.0 1030472
12:00+13ююз455065 0.0 10301325
15:00+15ююз44485 0.0 10301413
18:00+14ююз34594 0.0 10291054
21:00+9ююз22732 0.0 103019